Regional Weather Roundup
Issued by NWS

Home | Current Version | Previous Version | Text Only | Print | Product List | Glossary On
Versions: 1 2 3 4 5 6 7 8 9 10 11 12 13 14 15 16 17 18 19 20 21 22 23 24 25 26 27
000
ASUS46 KPQR 010410
RWROR

OREGON REGIONAL WEATHER ROUNDUP
NATIONAL WEATHER SERVICE PORTLAND OR
900 PM PDT SAT APR 30 2016

NOTE: "FAIR" INDICATES FEW OR NO CLOUDS BELOW 12,000 FEET WITH
NO SIGNIFICANT WEATHER AND/OR OBSTRUCTIONS TO VISIBILITY.

ORZ001>013-010500-
NORTHWEST OREGON


CITY           SKY/WX    TMP DP  RH WIND       PRES   REMARKS
ASTORIA        CLEAR     54  47  77 NW13G20   30.29S
NEWPORT        CLEAR     52  48  87 N8        30.27S
PORTLAND       PTCLDY    63  42  46 NW8       30.22S
VANCOUVER WA   CLEAR     64  43  46 NW6       30.22R
SCAPPOOSE      CLEAR     63  44  50 NW10G18   30.22S
HILLSBORO      CLEAR     59  43  55 NW5       30.23R
AURORA         CLEAR     60  44  55 CALM      30.23S
MCMINNVILLE    CLEAR     60  44  55 N7        30.23S
SALEM          CLEAR     61  46  57 N6        30.21S
CORVALLIS        N/A     57  48  72 MISG      30.23S
EUGENE         PTCLDY    56  48  74 N7        30.21S
$$

ORZ021-028-010500-
SOUTHWEST OREGON


CITY           SKY/WX    TMP DP  RH WIND       PRES   REMARKS
NORTH BEND     CLEAR     54  52  94 N16       30.21S
BROOKINGS      CLEAR     67  43  41 N12G21    30.04S
ROSEBURG       CLEAR     60  44  55 CALM      30.18R
SEXTON SUMMIT  CLEAR     44  40  85 N10G20    30.15S
MEDFORD        CLEAR     62  45  53 NW5       30.12R
$$

ORZ014>016-041-010500-
COLUMBIA GORGE


CITY           SKY/WX    TMP DP  RH WIND       PRES   REMARKS
TROUTDALE      CLEAR     63  42  46 CALM      30.21S
THE DALLES     CLEAR     65  46  50 NW14      30.18R
$$

ORZ029>031-041-044-049-050-061>064-502-503-505>511-010500-
EASTERN OREGON


CITY           SKY/WX    TMP DP  RH WIND       PRES   REMARKS
REDMOND        CLEAR     52  32  46 N6        30.21R
BEND           CLEAR     54  32  43 CALM      30.22R
PRINEVILLE     CLEAR     52  32  46 VRB3      30.22S
KLAMATH FALLS  CLEAR     53  30  41 N10       30.14R
LAKEVIEW       CLEAR     45  30  57 N8        30.16R
HERMISTON      CLEAR     57  44  62 NE6       30.19R
PENDLETON      CLEAR     51  42  71 NE9       30.20R
JOHN DAY       PTCLDY    50  37  60 N9        30.21R
MEACHAM        CLEAR     42  38  85 CALM      30.23R
LA GRANDE      PTCLDY    48  34  57 N9        30.21R
BAKER CITY     PTCLDY    45  38  76 NW10      30.18R
BURNS          PTCLDY    49  30  48 NW7       30.17R
ROME             N/A     53  33  46 N16       30.11R
ONTARIO        CLEAR     55  35  47 NW13      30.10R
$$




USA.gov is the U.S. government's official web portal to all federal, state and local government web resources and services.